Northeast Philadelphia, PA

3:37 PM EDT on April 27, 2017 (GMT -0400)
Northeast Philadelphia

Weather History for KPNE - May, 2013

Change the Weather History Date:

Saturday, May 25, 2013

  Actual Average Record
Temperature  
Mean Temperature 54 °F -  
Max Temperature 62 °F 71 °F 88 °F (2007)
Min Temperature 46 °F 52 °F 46 °F (2013)
Degree Days  
Heating Degree Days 11    
Growing Degree Days 4 (Base 50)    
Moisture  
Dew Point 34 °F    
Average Humidity 50    
Maximum Humidity 79    
Minimum Humidity 31    
Precipitation  
Precipitation 0.00 in - - ()
Sea Level Pressure  
Sea Level Pressure 30.02 in    
Wind  
Wind Speed 15 mph (NW)    
Max Wind Speed 20 mph    
Max Gust Speed 33 mph    
Visibility 10 miles    
Events      
Averages and records for this station are not official NWS values.
T = Trace of Precipitation, MM = Missing Value Source: NWS Daily Summary

Daily Weather History Graph

Daily Weather History Graph

Search for Another Location

Airport or City:

Trip Planner

Search our weather history database for the weather conditions in past years. The results will help you decide how hot, cold, wet, or windy it might be!

Date:

Astronomy

May. 25, 2013 Rise Set
Actual Time 5:36 AM EDT 8:17 PM EDT
Civil Twilight 5:04 AM EDT 8:49 PM EDT
Nautical Twilight 4:25 AM EDT 9:29 PM EDT
Astronomical Twilight 3:40 AM EDT 10:14 PM EDT
Moon 9:03 PM EDT (5/25) 6:01 AM EDT (5/25)
Length of Visible Light 15h 44m
Length of Day
14h 41m
Full, 100% of the Moon is Illuminated
May 25
Full
May 31
Last Quarter
Jun 8
New
Jun 16
First Quarter
Jun 23
Full

Hourly Weather History & Observations

Time (EDT) Temp. Windchill Dew Point Humidity Pressure Visibility Wind Dir Wind Speed Gust Speed Precip Events Conditions
12:54 AM 46.9 °F - 37.0 °F 68% 30.02 in 10.0 mi NW 17.3 mph 24.2 mph N/A   Overcast
1:54 AM 46.9 °F - 37.0 °F 68% 30.01 in 10.0 mi NW 17.3 mph 26.5 mph N/A   Overcast
2:54 AM 46.9 °F - 37.9 °F 71% 30.00 in 10.0 mi NW 13.8 mph 19.6 mph N/A   Overcast
3:54 AM 48.0 °F - 37.0 °F 66% 29.99 in 10.0 mi NW 15.0 mph 24.2 mph 0.00 in   Overcast
4:54 AM 48.0 °F - 37.0 °F 66% 30.00 in 10.0 mi NW 11.5 mph 21.9 mph N/A   Overcast
5:54 AM 46.0 °F 41.0 °F 39.9 °F 79% 30.00 in 10.0 mi WNW 10.4 mph - 0.00 in   Overcast
6:54 AM 46.9 °F - 39.0 °F 74% 30.01 in 10.0 mi WNW 9.2 mph - 0.00 in   Overcast
7:54 AM 48.9 °F - 37.0 °F 64% 30.01 in 10.0 mi WNW 11.5 mph 18.4 mph 0.00 in   Overcast
8:54 AM 52.0 °F - 36.0 °F 54% 30.02 in 10.0 mi NW 13.8 mph 33.4 mph N/A   Mostly Cloudy
9:54 AM 55.0 °F - 36.0 °F 49% 30.01 in 10.0 mi NW 19.6 mph 29.9 mph N/A   Mostly Cloudy
10:54 AM 57.9 °F - 35.1 °F 42% 30.01 in 10.0 mi NW 19.6 mph 29.9 mph N/A   Mostly Cloudy
11:54 AM 57.0 °F - 33.1 °F 40% 30.02 in 10.0 mi NW 19.6 mph 26.5 mph N/A   Overcast
12:54 PM 57.9 °F - 33.1 °F 39% 30.01 in 10.0 mi NW 18.4 mph 29.9 mph N/A   Overcast
1:54 PM 59.0 °F - 34.0 °F 39% 30.01 in 10.0 mi NW 17.3 mph 26.5 mph N/A   Overcast
2:54 PM 59.0 °F - 33.1 °F 38% 30.01 in 10.0 mi NW 18.4 mph 27.6 mph N/A   Overcast
3:54 PM 60.1 °F - 33.1 °F 36% 30.00 in 10.0 mi NW 17.3 mph 23.0 mph 0.00 in   Mostly Cloudy
4:54 PM 61.0 °F - 32.0 °F 34% 30.00 in 10.0 mi NW 17.3 mph 26.5 mph N/A   Mostly Cloudy
5:54 PM 62.1 °F - 32.0 °F 32% 30.01 in 10.0 mi NNW 17.3 mph 23.0 mph N/A   Scattered Clouds
6:54 PM 60.1 °F - 28.9 °F 31% 30.03 in 10.0 mi NNW 18.4 mph 25.3 mph N/A   Partly Cloudy
7:54 PM 57.0 °F - 30.9 °F 37% 30.05 in 10.0 mi North 11.5 mph - N/A   Partly Cloudy
8:54 PM 54.0 °F - 30.9 °F 41% 30.06 in 10.0 mi NW 5.8 mph - N/A   Clear
9:54 PM 54.0 °F - 28.9 °F 38% 30.08 in 10.0 mi NNW 11.5 mph 24.2 mph N/A   Clear
10:54 PM 53.1 °F - 30.0 °F 41% 30.08 in 10.0 mi WNW 8.1 mph - N/A   Clear
11:54 PM 51.1 °F - 30.9 °F 46% 30.07 in 10.0 mi WNW 8.1 mph - N/A   Clear